| time (UTC) | temp F | wind direction | speed knots | gust knots | rain 1hr in | rain 24hr in | rain mn in | humidity % | barometer mb |
| 20260508005004 | 54 | 300 | 1.7 | 4.3 | 0.00 | 0.01 | 0.01 | 42 | 1006.9 |
| 20260508004515 | 54 | 271 | 1.7 | 4.3 | 0.00 | 0.01 | 0.01 | 43 | 1006.8 |
| 20260508004003 | 54 | 293 | 2.6 | 4.3 | 0.00 | 0.01 | 0.01 | 43 | 1006.8 |
| 20260508003503 | 55 | 283 | 2.6 | 5.2 | 0.00 | 0.01 | 0.01 | 42 | 1006.7 |
| 20260508003034 | 55 | 282 | 2.6 | 5.2 | 0.00 | 0.01 | 0.01 | 40 | 1006.6 |
| 20260508002502 | 56 | 303 | 2.6 | 5.2 | 0.00 | 0.01 | 0.01 | 39 | 1006.6 |
| 20260508002010 | 56 | 282 | 3.5 | 5.2 | 0.00 | 0.01 | 0.01 | 38 | 1006.5 |
| 20260508001513 | 56 | 295 | 1.7 | 5.2 | 0.00 | 0.01 | 0.01 | 38 | 1006.5 |
| 20260508001006 | 56 | 288 | 2.6 | 6.1 | 0.00 | 0.01 | 0.01 | 38 | 1006.4 |
| 20260508000508 | 57 | 249 | 3.5 | 7.0 | 0.00 | 0.01 | 0.01 | 37 | 1006.4 |
| 20260508000002 | 57 | 304 | 3.5 | 7.0 | 0.00 | 0.01 | 0.01 | 38 | 1006.4 |
| 20260507235004 | 57 | 288 | 3.5 | 7.0 | 0.00 | 0.01 | 0.01 | 39 | 1006.2 |
| 20260507234007 | 58 | 287 | 2.6 | 6.1 | 0.00 | 0.02 | 0.01 | 38 | 1006.3 |
| 20260507233503 | 59 | 254 | 2.6 | 6.1 | 0.00 | 0.04 | 0.01 | 36 | 1006.2 |
| 20260507233006 | 59 | 219 | 2.6 | 6.1 | 0.00 | 0.07 | 0.01 | 36 | 1006.1 |
| 20260507232504 | 59 | 281 | 2.6 | 7.0 | 0.00 | 0.08 | 0.01 | 35 | 1006.0 |
| 20260507232005 | 59 | 317 | 2.6 | 7.0 | 0.00 | 0.08 | 0.01 | 35 | 1005.9 |
| 20260507231510 | 60 | 326 | 1.7 | 6.1 | 0.00 | 0.09 | 0.01 | 36 | 1005.9 |
| 20260507231009 | 60 | 297 | 3.5 | 6.1 | 0.00 | 0.10 | 0.01 | 35 | 1005.8 |
| 20260507230510 | 60 | 273 | 1.7 | 6.1 | 0.00 | 0.11 | 0.01 | 33 | 1005.9 |
| 20260507230016 | 60 | 356 | 3.5 | 10.4 | 0.00 | 0.12 | 0.01 | 33 | 1005.9 |
| 20260507225509 | 61 | 328 | 5.2 | 10.4 | 0.00 | 0.13 | 0.01 | 34 | 1005.8 |
| 20260507225008 | 61 | 299 | 3.5 | 10.4 | 0.00 | 0.14 | 0.01 | 33 | 1005.7 |
| 20260507224505 | 61 | 273 | 6.1 | 10.4 | 0.00 | 0.15 | 0.01 | 34 | 1005.7 |
| 20260507224003 | 61 | 305 | 2.6 | 10.4 | 0.00 | 0.16 | 0.01 | 32 | 1005.7 |
| 20260507223503 | 62 | 342 | 4.3 | 8.7 | 0.00 | 0.16 | 0.01 | 32 | 1005.5 |
| 20260507223006 | 62 | 300 | 3.5 | 12.2 | 0.00 | 0.16 | 0.01 | 35 | 1005.4 |
| 20260507222506 | 62 | 257 | 7.0 | 12.2 | 0.00 | 0.16 | 0.01 | 33 | 1005.3 |
| 20260507222007 | 62 | 304 | 5.2 | 10.4 | 0.00 | 0.17 | 0.01 | 33 | 1005.4 |
| 20260507221508 | 62 | 263 | 5.2 | 12.2 | 0.00 | 0.17 | 0.01 | 31 | 1005.3 |
| 20260507221003 | 62 | 292 | 6.1 | 13.0 | 0.00 | 0.18 | 0.01 | 32 | 1005.2 |
| 20260507220506 | 62 | 308 | 7.0 | 13.0 | 0.00 | 0.18 | 0.01 | 32 | 1005.2 |
| 20260507220014 | 62 | 271 | 3.5 | 12.2 | 0.00 | 0.18 | 0.01 | 33 | 1005.2 |
| 20260507215507 | 62 | 297 | 6.1 | 13.0 | 0.00 | 0.18 | 0.01 | 32 | 1005.1 |
| 20260507215004 | 62 | 319 | 7.0 | 13.0 | 0.00 | 0.18 | 0.01 | 32 | 1005.1 |
| 20260507214515 | 63 | 63 | 5.2 | 11.3 | 0.00 | 0.18 | 0.01 | 31 | 1005.0 |
| 20260507214009 | 63 | 39 | 4.3 | 8.7 | 0.00 | 0.19 | 0.01 | 32 | 1005.0 |
| 20260507213507 | 64 | 283 | 4.3 | 12.2 | 0.00 | 0.19 | 0.01 | 31 | 1004.9 |
| 20260507213003 | 63 | 333 | 4.3 | 12.2 | 0.00 | 0.19 | 0.01 | 33 | 1005.0 |
| 20260507212503 | 64 | 316 | 4.3 | 10.4 | 0.00 | 0.19 | 0.01 | 31 | 1005.0 |
| 20260507212003 | 63 | 6 | 2.6 | 10.4 | 0.00 | 0.19 | 0.01 | 30 | 1005.0 |
| 20260507211508 | 63 | 288 | 5.2 | 15.6 | 0.00 | 0.20 | 0.01 | 31 | 1005.0 |
| 20260507211004 | 63 | 349 | 8.7 | 15.6 | 0.00 | 0.20 | 0.01 | 31 | 1005.0 |
| 20260507210504 | 63 | 276 | 7.0 | 13.0 | 0.00 | 0.21 | 0.01 | 33 | 1005.0 |
| 20260507210010 | 63 | 278 | 6.1 | 13.9 | 0.00 | 0.21 | 0.01 | 32 | 1005.0 |
| 20260507205504 | 63 | 274 | 7.8 | 13.9 | 0.00 | 0.22 | 0.01 | 32 | 1005.0 |
| 20260507205004 | 63 | 300 | 4.3 | 12.2 | 0.00 | 0.23 | 0.01 | 31 | 1004.9 |
| 20260507204516 | 63 | 297 | 5.2 | 12.2 | 0.00 | 0.23 | 0.01 | 31 | 1004.9 |
| 20260507204005 | 64 | 267 | 3.5 | 14.8 | 0.00 | 0.24 | 0.01 | 33 | 1005.1 |
| 20260507203505 | 63 | 269 | 5.2 | 14.8 | 0.00 | 0.25 | 0.01 | 33 | 1005.1 |
| 20260507203018 | 64 | 238 | 3.5 | 12.2 | 0.00 | 0.26 | 0.01 | 32 | 1005.1 |
| 20260507202508 | 64 | 326 | 5.2 | 12.2 | 0.00 | 0.27 | 0.01 | 31 | 1005.1 |
| 20260507202010 | 64 | 18 | 4.3 | 10.4 | 0.00 | 0.28 | 0.01 | 30 | 1005.0 |
| 20260507201506 | 64 | 266 | 5.2 | 10.4 | 0.00 | 0.29 | 0.01 | 32 | 1005.0 |
| 20260507201004 | 64 | 54 | 4.3 | 9.6 | 0.00 | 0.29 | 0.01 | 32 | 1005.0 |
| 20260507200503 | 64 | 306 | 5.2 | 9.6 | 0.00 | 0.29 | 0.01 | 31 | 1005.1 |
| 20260507200010 | 63 | 288 | 2.6 | 12.2 | 0.00 | 0.29 | 0.01 | 32 | 1005.1 |
| 20260507195504 | 63 | 288 | 2.6 | 12.2 | 0.00 | 0.29 | 0.01 | 33 | 1005.2 |
| 20260507195005 | 63 | 292 | 6.1 | 11.3 | 0.00 | 0.29 | 0.01 | 32 | 1005.2 |
| 20260507194514 | 63 | 313 | 7.0 | 12.2 | 0.00 | 0.30 | 0.01 | 33 | 1005.1 |
| 20260507194004 | 63 | 319 | 5.2 | 12.2 | 0.00 | 0.30 | 0.01 | 32 | 1005.1 |
| 20260507193504 | 63 | 271 | 6.1 | 13.0 | 0.00 | 0.31 | 0.01 | 32 | 1005.2 |
| 20260507193020 | 63 | 258 | 4.3 | 13.0 | 0.00 | 0.31 | 0.01 | 33 | 1005.3 |
| 20260507192509 | 63 | 335 | 6.1 | 13.9 | 0.00 | 0.31 | 0.01 | 34 | 1005.3 |
| 20260507192007 | 63 | 312 | 4.3 | 13.9 | 0.00 | 0.31 | 0.01 | 33 | 1005.3 |
| 20260507191522 | 63 | 7 | 6.1 | 12.2 | 0.00 | 0.32 | 0.01 | 32 | 1005.4 |
| 20260507191007 | 63 | 281 | 6.1 | 12.2 | 0.00 | 0.32 | 0.01 | 33 | 1005.5 |
| 20260507190510 | 63 | 28 | 4.3 | 13.9 | 0.00 | 0.32 | 0.01 | 33 | 1005.6 |
| 20260507190007 | 63 | 283 | 4.3 | 13.9 | 0.00 | 0.32 | 0.01 | 32 | 1005.5 |
| 20260507185503 | 63 | 288 | 7.8 | 13.9 | 0.00 | 0.32 | 0.01 | 32 | 1005.6 |
| 20260507185003 | 63 | 290 | 7.8 | 12.2 | 0.00 | 0.32 | 0.01 | 32 | 1005.5 |
| 20260507184513 | 63 | 212 | 7.0 | 10.4 | 0.00 | 0.32 | 0.01 | 32 | 1005.5 |
| 20260507184005 | 63 | 8 | 6.1 | 11.3 | 0.00 | 0.32 | 0.01 | 32 | 1005.6 |
| 20260507183506 | 63 | 322 | 6.1 | 14.8 | 0.00 | 0.32 | 0.01 | 33 | 1005.6 |
| 20260507183016 | 63 | 269 | 7.0 | 14.8 | 0.00 | 0.32 | 0.01 | 34 | 1005.7 |
| 20260507182506 | 63 | 327 | 3.5 | 12.2 | 0.00 | 0.32 | 0.01 | 33 | 1005.7 |
| 20260507182008 | 63 | 345 | 6.1 | 11.3 | 0.00 | 0.32 | 0.01 | 31 | 1005.6 |
| 20260507181518 | 63 | 251 | 5.2 | 11.3 | 0.00 | 0.32 | 0.01 | 30 | 1005.7 |
| 20260507181007 | 63 | 295 | 7.8 | 11.3 | 0.00 | 0.32 | 0.01 | 33 | 1005.7 |
| 20260507180508 | 63 | 281 | 7.8 | 11.3 | 0.00 | 0.32 | 0.01 | 35 | 1005.8 |
| 20260507180020 | 63 | 322 | 4.3 | 10.4 | 0.00 | 0.32 | 0.01 | 35 | 1005.7 |
| 20260507175511 | 63 | 78 | 5.2 | 11.3 | 0.00 | 0.32 | 0.01 | 34 | 1005.6 |
| 20260507175009 | 63 | 296 | 5.2 | 13.9 | 0.00 | 0.32 | 0.01 | 35 | 1005.7 |
| 20260507174510 | 63 | 288 | 6.1 | 16.5 | 0.00 | 0.32 | 0.01 | 35 | 1005.6 |
| 20260507174003 | 63 | 350 | 5.2 | 16.5 | 0.00 | 0.32 | 0.01 | 35 | 1005.6 |
| 20260507173504 | 63 | 260 | 8.7 | 15.6 | 0.00 | 0.32 | 0.01 | 36 | 1005.7 |
| 20260507173012 | 63 | 278 | 3.5 | 14.8 | 0.00 | 0.32 | 0.01 | 38 | 1005.6 |
| 20260507172503 | 62 | 269 | 7.0 | 14.8 | 0.00 | 0.32 | 0.01 | 37 | 1005.7 |
| 20260507172006 | 63 | 280 | 7.8 | 13.9 | 0.00 | 0.32 | 0.01 | 40 | 1005.7 |
| 20260507171514 | 62 | 311 | 3.5 | 13.9 | 0.00 | 0.32 | 0.01 | 41 | 1005.8 |
| 20260507171006 | 62 | 306 | 6.1 | 11.3 | 0.00 | 0.32 | 0.01 | 43 | 1005.8 |
| 20260507170507 | 63 | 232 | 3.5 | 9.6 | 0.00 | 0.32 | 0.01 | 45 | 1005.9 |
| 20260507170022 | 61 | 303 | 5.2 | 9.6 | 0.00 | 0.32 | 0.01 | 48 | 1006.1 |
| 20260507165506 | 61 | 235 | 6.1 | 13.0 | 0.00 | 0.32 | 0.01 | 49 | 1006.1 |
| 20260507165007 | 60 | 328 | 7.0 | 13.0 | 0.00 | 0.32 | 0.01 | 51 | 1006.2 |
| 20260507164522 | 61 | 278 | 6.1 | 13.0 | 0.00 | 0.32 | 0.01 | 50 | 1006.2 |
| 20260507164010 | 62 | 218 | 4.3 | 10.4 | 0.00 | 0.32 | 0.01 | 48 | 1006.2 |
| 20260507163508 | 61 | 279 | 5.2 | 11.3 | 0.00 | 0.32 | 0.01 | 49 | 1006.3 |
| 20260507163010 | 61 | 313 | 4.3 | 13.0 | 0.00 | 0.32 | 0.01 | 51 | 1006.4 |
| 20260507162503 | 60 | 323 | 5.2 | 13.9 | 0.00 | 0.32 | 0.01 | 53 | 1006.4 |
| 20260507162004 | 60 | 215 | 6.1 | 13.9 | 0.00 | 0.32 | 0.01 | 53 | 1006.5 |
| 20260507161514 | 60 | 271 | 6.1 | 12.2 | 0.00 | 0.32 | 0.01 | 51 | 1006.5 |
| 20260507161004 | 61 | 281 | 4.3 | 9.6 | 0.00 | 0.32 | 0.01 | 50 | 1006.5 |
| 20260507160506 | 61 | 275 | 2.6 | 12.2 | 0.00 | 0.32 | 0.01 | 50 | 1006.5 |
| 20260507160019 | 60 | 309 | 4.3 | 12.2 | 0.00 | 0.32 | 0.01 | 53 | 1006.5 |
| 20260507155512 | 59 | 311 | 2.6 | 10.4 | 0.00 | 0.32 | 0.01 | 51 | 1006.6 |
| 20260507155008 | 60 | 314 | 5.2 | 9.6 | 0.00 | 0.32 | 0.01 | 52 | 1006.5 |
| 20260507154522 | 60 | 335 | 2.6 | 7.8 | 0.00 | 0.32 | 0.01 | 50 | 1006.6 |
| 20260507154010 | 60 | 354 | 3.5 | 11.3 | 0.00 | 0.32 | 0.01 | 50 | 1006.7 |
| 20260507153505 | 60 | 309 | 4.3 | 11.3 | 0.00 | 0.32 | 0.01 | 48 | 1006.7 |
| 20260507153006 | 60 | 310 | 2.6 | 11.3 | 0.00 | 0.32 | 0.01 | 50 | 1006.7 |
| 20260507152504 | 60 | 285 | 3.5 | 11.3 | 0.00 | 0.32 | 0.01 | 50 | 1006.8 |
| 20260507152004 | 59 | 9 | 4.3 | 11.3 | 0.00 | 0.32 | 0.01 | 49 | 1006.8 |
| 20260507151512 | 60 | 297 | 7.0 | 11.3 | 0.00 | 0.32 | 0.01 | 51 | 1007.0 |
| 20260507151004 | 60 | 293 | 4.3 | 7.8 | 0.00 | 0.32 | 0.01 | 52 | 1007.1 |
| 20260507150504 | 59 | 146 | 3.5 | 7.8 | 0.00 | 0.32 | 0.01 | 51 | 1007.2 |
| 20260507150018 | 59 | 298 | 4.3 | 7.8 | 0.00 | 0.32 | 0.01 | 52 | 1007.3 |
| 20260507145504 | 59 | 285 | 3.5 | 7.8 | 0.00 | 0.32 | 0.01 | 52 | 1007.3 |
| 20260507145006 | 59 | 304 | 2.6 | 8.7 | 0.00 | 0.32 | 0.01 | 51 | 1007.3 |
| 20260507144518 | 59 | 255 | 3.5 | 10.4 | 0.00 | 0.32 | 0.01 | 52 | 1007.3 |
| 20260507144007 | 59 | 298 | 5.2 | 10.4 | 0.00 | 0.32 | 0.01 | 52 | 1007.3 |
| 20260507143507 | 59 | 259 | 3.5 | 7.8 | 0.00 | 0.32 | 0.01 | 52 | 1007.3 |
| 20260507143026 | 59 | 272 | 2.6 | 7.0 | 0.00 | 0.32 | 0.01 | 54 | 1007.3 |
| 20260507142502 | 59 | 60 | 3.5 | 8.7 | 0.00 | 0.32 | 0.01 | 53 | 1007.2 |
| 20260507142003 | 58 | 288 | 3.5 | 8.7 | 0.00 | 0.32 | 0.01 | 55 | 1007.3 |
| 20260507141506 | 58 | 267 | 0.9 | 4.3 | 0.00 | 0.32 | 0.01 | 54 | 1007.2 |
| 20260507141006 | 58 | 268 | 1.7 | 5.2 | 0.00 | 0.32 | 0.01 | 55 | 1007.2 |
| 20260507140504 | 58 | 1 | 1.7 | 5.2 | 0.00 | 0.32 | 0.01 | 56 | 1007.3 |
| 20260507140023 | 58 | 316 | 0.9 | 4.3 | 0.00 | 0.32 | 0.01 | 57 | 1007.2 |
| 20260507135506 | 57 | 314 | 1.7 | 7.0 | 0.00 | 0.32 | 0.01 | 57 | 1007.2 |
| 20260507135005 | 56 | 10 | 3.5 | 7.0 | 0.00 | 0.32 | 0.01 | 59 | 1007.2 |
| 20260507134514 | 57 | 273 | 2.6 | 6.1 | 0.00 | 0.32 | 0.01 | 59 | 1007.3 |
| 20260507134004 | 56 | 340 | 3.5 | 6.1 | 0.00 | 0.32 | 0.01 | 59 | 1007.4 |
| 20260507133510 | 56 | 324 | 1.7 | 6.1 | 0.00 | 0.32 | 0.01 | 61 | 1007.5 |
| 20260507133021 | 56 | 309 | 2.6 | 6.1 | 0.00 | 0.32 | 0.01 | 62 | 1007.6 |
| 20260507132508 | 56 | 280 | 2.6 | 6.1 | 0.00 | 0.32 | 0.01 | 61 | 1007.6 |
| 20260507132008 | 56 | 309 | 1.7 | 5.2 | 0.00 | 0.32 | 0.01 | 63 | 1007.7 |
| 20260507131532 | 55 | 359 | 1.7 | 5.2 | 0.00 | 0.32 | 0.01 | 63 | 1007.7 |
| 20260507131004 | 55 | 271 | 1.7 | 6.1 | 0.00 | 0.32 | 0.01 | 64 | 1007.8 |
| 20260507130505 | 55 | 340 | 2.6 | 8.7 | 0.00 | 0.32 | 0.01 | 65 | 1007.8 |
| 20260507130008 | 54 | 310 | 3.5 | 8.7 | 0.00 | 0.32 | 0.01 | 66 | 1007.8 |
| 20260507125504 | 54 | 351 | 2.6 | 7.0 | 0.00 | 0.32 | 0.01 | 67 | 1007.8 |
| 20260507125006 | 54 | 328 | 1.7 | 7.0 | 0.00 | 0.32 | 0.01 | 68 | 1007.8 |
| 20260507124515 | 53 | 319 | 3.5 | 7.0 | 0.00 | 0.32 | 0.01 | 69 | 1007.8 |
| 20260507124009 | 53 | 262 | 1.7 | 7.0 | 0.00 | 0.32 | 0.01 | 69 | 1007.9 |
| 20260507123506 | 53 | 285 | 2.6 | 7.0 | 0.00 | 0.32 | 0.01 | 69 | 1007.8 |
| 20260507123022 | 52 | 269 | 2.6 | 7.0 | 0.00 | 0.32 | 0.01 | 70 | 1007.8 |
| 20260507122507 | 52 | 288 | 3.5 | 6.1 | 0.00 | 0.32 | 0.01 | 71 | 1007.9 |
| 20260507122010 | 52 | 262 | 1.7 | 6.1 | 0.00 | 0.32 | 0.01 | 74 | 1008.0 |
| 20260507121522 | 51 | 276 | 2.6 | 6.1 | 0.00 | 0.32 | 0.01 | 74 | 1008.0 |
| 20260507121008 | 51 | 283 | 2.6 | 6.1 | 0.00 | 0.32 | 0.01 | 74 | 1008.0 |
| 20260507120508 | 51 | 298 | 3.5 | 8.7 | 0.00 | 0.32 | 0.01 | 76 | 1007.9 |
| 20260507120026 | 50 | 352 | 2.6 | 8.7 | 0.00 | 0.32 | 0.01 | 76 | 1007.8 |
| 20260507115506 | 50 | 321 | 3.5 | 9.6 | 0.00 | 0.32 | 0.01 | 77 | 1007.9 |
| 20260507115008 | 50 | 354 | 1.7 | 9.6 | 0.00 | 0.32 | 0.01 | 78 | 1007.9 |
| 20260507114511 | 49 | 256 | 3.5 | 7.8 | 0.00 | 0.32 | 0.01 | 78 | 1007.8 |
| 20260507114005 | 49 | 312 | 3.5 | 7.8 | 0.00 | 0.32 | 0.01 | 80 | 1007.7 |
| 20260507113506 | 49 | 318 | 2.6 | 8.7 | 0.00 | 0.32 | 0.01 | 80 | 1007.5 |
| 20260507113012 | 49 | 290 | 3.5 | 8.7 | 0.00 | 0.32 | 0.01 | 80 | 1007.4 |
| 20260507112504 | 48 | 359 | 4.3 | 7.8 | 0.00 | 0.32 | 0.01 | 81 | 1007.2 |
| 20260507112006 | 48 | 312 | 1.7 | 7.0 | 0.00 | 0.32 | 0.01 | 81 | 1007.4 |
| 20260507111520 | 48 | 305 | 2.6 | 6.1 | 0.00 | 0.32 | 0.01 | 82 | 1007.7 |
| 20260507111007 | 48 | 288 | 1.7 | 7.0 | 0.00 | 0.32 | 0.01 | 82 | 1007.9 |
| 20260507110506 | 48 | 281 | 2.6 | 7.0 | 0.00 | 0.32 | 0.01 | 82 | 1007.8 |
| 20260507110026 | 48 | 34 | 1.7 | 6.1 | 0.00 | 0.32 | 0.01 | 83 | 1007.8 |
| 20260507105508 | 48 | 293 | 1.7 | 6.1 | 0.00 | 0.32 | 0.01 | 83 | 1007.4 |
| 20260507105006 | 48 | 288 | 2.6 | 6.1 | 0.00 | 0.32 | 0.01 | 83 | 1007.3 |
| 20260507104528 | 48 | 298 | 2.6 | 6.1 | 0.00 | 0.32 | 0.01 | 83 | 1007.2 |
| 20260507104007 | 48 | 314 | 2.6 | 5.2 | 0.00 | 0.32 | 0.01 | 83 | 1007.1 |
| 20260507103503 | 48 | 240 | 1.7 | 7.0 | 0.00 | 0.32 | 0.01 | 83 | 1007.2 |
| 20260507103015 | 48 | 273 | 2.6 | 7.0 | 0.00 | 0.32 | 0.01 | 83 | 1007.0 |
| 20260507102506 | 48 | 295 | 2.6 | 6.1 | 0.00 | 0.32 | 0.01 | 83 | 1007.3 |
| 20260507102008 | 48 | 256 | 3.5 | 6.1 | 0.00 | 0.32 | 0.01 | 83 | 1007.3 |
| 20260507101535 | 48 | 57 | 2.6 | 6.1 | 0.00 | 0.32 | 0.01 | 83 | 1007.2 |
| 20260507101005 | 48 | 353 | 3.5 | 6.1 | 0.00 | 0.32 | 0.01 | 83 | 1007.1 |
| 20260507100507 | 48 | 316 | 2.6 | 7.0 | 0.00 | 0.32 | 0.01 | 83 | 1007.2 |
| 20260507100031 | 48 | 278 | 2.6 | 7.0 | 0.00 | 0.32 | 0.01 | 83 | 1007.6 |
| 20260507095508 | 48 | 274 | 3.5 | 7.0 | 0.00 | 0.32 | 0.01 | 83 | 1007.4 |
| 20260507095012 | 48 | 247 | 3.5 | 7.0 | 0.00 | 0.32 | 0.01 | 83 | 1007.1 |
| 20260507094525 | 48 | 313 | 3.5 | 6.1 | 0.00 | 0.32 | 0.01 | 83 | 1007.3 |
| 20260507094010 | 48 | 346 | 2.6 | 6.1 | 0.00 | 0.32 | 0.01 | 84 | 1007.3 |
| 20260507093508 | 48 | 252 | 1.7 | 7.8 | 0.00 | 0.32 | 0.01 | 83 | 1007.2 |
| 20260507093032 | 48 | 266 | 3.5 | 7.8 | 0.00 | 0.32 | 0.01 | 83 | 1007.3 |
| 20260507092514 | 48 | 252 | 3.5 | 7.8 | 0.00 | 0.32 | 0.01 | 83 | 1007.3 |
| 20260507092004 | 48 | 357 | 3.5 | 7.8 | 0.00 | 0.32 | 0.01 | 83 | 1007.3 |
| 20260507091533 | 48 | 294 | 4.3 | 7.0 | 0.00 | 0.32 | 0.01 | 83 | 1007.4 |
| 20260507091007 | 48 | 322 | 2.6 | 7.8 | 0.00 | 0.32 | 0.01 | 83 | 1007.2 |
| 20260507090507 | 49 | 299 | 3.5 | 7.8 | 0.00 | 0.32 | 0.01 | 84 | 1007.1 |
| 20260507090018 | 49 | 296 | 1.7 | 6.1 | 0.01 | 0.32 | 0.01 | 84 | 1007.0 |
| 20260507085506 | 49 | 294 | 3.5 | 7.0 | 0.01 | 0.32 | 0.01 | 84 | 1006.7 |
| 20260507085008 | 49 | 307 | 2.6 | 7.0 | 0.01 | 0.32 | 0.01 | 84 | 1007.0 |
| 20260507084527 | 49 | 234 | 2.6 | 7.0 | 0.01 | 0.32 | 0.01 | 84 | 1007.0 |
| 20260507084012 | 49 | 31 | 2.6 | 7.0 | 0.01 | 0.32 | 0.01 | 83 | 1006.8 |
| 20260507083026 | 49 | 278 | 2.6 | 7.8 | 0.01 | 0.32 | 0.01 | 83 | 1006.8 |
| 20260507082508 | 49 | 283 | 3.5 | 7.8 | 0.01 | 0.32 | 0.01 | 83 | 1006.6 |
| 20260507081538 | 50 | 290 | 3.5 | 10.4 | 0.01 | 0.32 | 0.01 | 82 | 1006.8 |
| 20260507081007 | 50 | 273 | 5.2 | 10.4 | 0.01 | 0.32 | 0.01 | 82 | 1006.8 |
| 20260507080017 | 50 | 317 | 3.5 | 11.3 | 0.00 | 0.31 | 0.00 | 81 | 1006.5 |
| 20260507075508 | 50 | 288 | 5.2 | 11.3 | 0.00 | 0.31 | 0.00 | 81 | 1006.8 |
| 20260507075012 | 50 | 89 | 4.3 | 11.3 | 0.00 | 0.31 | 0.00 | 81 | 1006.8 |
| 20260507074521 | 50 | 321 | 2.6 | 8.7 | 0.00 | 0.31 | 0.00 | 81 | 1006.5 |
| 20260507074005 | 50 | 338 | 3.5 | 7.8 | 0.00 | 0.31 | 0.00 | 82 | 1006.6 |
| 20260507073023 | 51 | 326 | 4.3 | 11.3 | 0.00 | 0.31 | 0.00 | 82 | 1006.2 |
| 20260507072511 | 51 | 276 | 6.1 | 11.3 | 0.00 | 0.31 | 0.00 | 82 | 1006.2 |
| 20260507072009 | 51 | 270 | 3.5 | 12.2 | 0.00 | 0.31 | 0.00 | 83 | 1006.2 |
| 20260507071526 | 51 | 304 | 4.3 | 12.2 | 0.00 | 0.31 | 0.00 | 83 | 1006.3 |
| 20260507071008 | 51 | 261 | 6.1 | 11.3 | 0.00 | 0.31 | 0.00 | 83 | 1006.5 |
| 20260507070509 | 51 | 281 | 5.2 | 11.3 | 0.00 | 0.31 | 0.00 | 83 | 1006.1 |
| 20260507070026 | 51 | 284 | 5.2 | 10.4 | 0.00 | 0.31 | 0.00 | 84 | 1006.1 |
| 20260507065513 | 51 | 291 | 5.2 | 8.7 | 0.00 | 0.31 | 0.00 | 85 | 1006.2 |
| 20260507065004 | 52 | 248 | 4.3 | 10.4 | 0.00 | 0.31 | 0.00 | 85 | 1006.1 |
| 20260507064519 | 52 | 278 | 5.2 | 10.4 | 0.00 | 0.31 | 0.00 | 85 | 1006.1 |
| 20260507064008 | 52 | 273 | 5.2 | 9.6 | 0.00 | 0.31 | 0.00 | 85 | 1005.8 |
| 20260507063507 | 52 | 293 | 3.5 | 10.4 | 0.00 | 0.31 | 0.00 | 85 | 1005.9 |
| 20260507063022 | 52 | 297 | 3.5 | 10.4 | 0.00 | 0.31 | 0.00 | 85 | 1005.8 |
| 20260507062512 | 52 | 281 | 5.2 | 8.7 | 0.00 | 0.31 | 0.00 | 85 | 1006.0 |
| 20260507061516 | 52 | 273 | 4.3 | 8.7 | 0.00 | 0.31 | 0.00 | 85 | 1005.9 |
| 20260507060007 | 52 | 302 | 5.2 | 9.6 | 0.00 | 0.31 | 0.00 | 85 | 1006.2 |
| 20260507054514 | 53 | 276 | 4.3 | 7.8 | 0.00 | 0.31 | 0.00 | 84 | 1006.1 |
| 20260507053018 | 53 | 319 | 6.1 | 11.3 | 0.00 | 0.31 | 0.00 | 82 | 1006.5 |
| 20260507052509 | 53 | 276 | 6.1 | 8.7 | 0.00 | 0.31 | 0.00 | 83 | 1006.4 |
| 20260507051505 | 53 | 316 | 5.2 | 12.2 | 0.00 | 0.31 | 0.00 | 83 | 1006.3 |
| 20260507051002 | 54 | 305 | 5.2 | 10.4 | 0.00 | 0.31 | 0.00 | 83 | 1006.4 |
| 20260507050502 | 54 | 310 | 5.2 | 12.2 | 0.00 | 0.31 | 0.00 | 83 | 1006.5 |
| 20260507050011 | 54 | 285 | 6.1 | 12.2 | 0.00 | 0.31 | 0.00 | 83 | 1006.4 |
| 20260507044526 | 55 | 311 | 4.3 | 9.6 | 0.00 | 0.31 | 0.00 | 85 | 1005.9 |
| 20260507041523 | 57 | 297 | 6.1 | 9.6 | 0.00 | 0.31 | 0.00 | 87 | 1006.2 |
| 20260507040010 | 57 | 293 | 7.0 | 13.9 | 0.00 | 0.31 | 0.00 | 87 | 1005.7 |
| 20260507035503 | 58 | 290 | 3.5 | 10.4 | 0.00 | 0.31 | 0.31 | 89 | 1005.7 |
| 20260507035004 | 58 | 287 | 6.1 | 10.4 | 0.00 | 0.31 | 0.31 | 89 | 1005.7 |
| 20260507034509 | 58 | 287 | 4.3 | 12.2 | 0.00 | 0.31 | 0.31 | 89 | 1005.6 |
| 20260507033015 | 59 | 264 | 2.6 | 7.8 | 0.00 | 0.31 | 0.31 | 91 | 1005.3 |
| 20260507031520 | 59 | 217 | 2.6 | 7.0 | 0.00 | 0.31 | 0.31 | 91 | 1005.0 |
| 20260507030510 | 59 | 196 | 4.3 | 9.6 | 0.00 | 0.31 | 0.31 | 90 | 1005.0 |
| 20260507025007 | 59 | 210 | 4.3 | 10.4 | 0.00 | 0.31 | 0.31 | 90 | 1005.1 |
| 20260507024506 | 59 | 229 | 3.5 | 7.8 | 0.00 | 0.31 | 0.31 | 90 | 1005.1 |
| 20260507024003 | 59 | 150 | 4.3 | 7.8 | 0.00 | 0.31 | 0.31 | 90 | 1005.1 |
| 20260507022004 | 59 | 205 | 4.3 | 9.6 | 0.00 | 0.31 | 0.31 | 90 | 1005.0 |
| 20260507021516 | 59 | 224 | 3.5 | 9.6 | 0.00 | 0.31 | 0.31 | 90 | 1005.1 |
| 20260507021010 | 59 | 216 | 4.3 | 9.6 | 0.00 | 0.31 | 0.31 | 90 | 1005.1 |
| 20260507015507 | 59 | 180 | 4.3 | 8.7 | 0.00 | 0.31 | 0.31 | 90 | 1005.3 |
| 20260507014527 | 59 | 219 | 4.3 | 9.6 | 0.00 | 0.31 | 0.31 | 90 | 1005.3 |
| 20260507013008 | 59 | 227 | 4.3 | 11.3 | 0.00 | 0.31 | 0.31 | 91 | 1005.4 |
| 20260507012507 | 59 | 245 | 5.2 | 9.6 | 0.00 | 0.31 | 0.31 | 91 | 1005.5 |
| 20260507011511 | 59 | 232 | 3.5 | 9.6 | 0.00 | 0.31 | 0.31 | 91 | 1005.4 |
| 20260507010504 | 59 | 233 | 4.3 | 9.6 | 0.00 | 0.31 | 0.31 | 91 | 1005.5 |
| 20260507005508 | 59 | 149 | 4.3 | 8.7 | 0.00 | 0.31 | 0.31 | 92 | 1005.4 |